When you browse on this site, cookies collect data to enhance your experience and personalize the content and advertising you see.
Visit our Privacy Policy to learn more. By continuing to use the site, you agree to this use of cookies and data.
  • In Romania
  • List of Countries
  • For 7 days
  • Water Temperature
  • Satellite Maps
  • Weather Map
  • Weather Widgets
  • user-avatar
    Login

    Hourly Weather Asciano

    Today, 25 April, Thursday

    Time Temperature Precipitation Wind Pressure Humidity
    00:00 +12°C° 0 mm 1 mps 742 mmHg 88%
    01:00 +12°C° 0 mm 1 mps 742 mmHg 89%
    02:00 +12°C° 0 mm 1 mps 742 mmHg 89%
    03:00 +11°C° 0 mm 1 mps 742 mmHg 89%
    04:00 +11°C° 0 mm 1 mps 743 mmHg 88%
    05:00 +12°C° 0 mm 1 mps 743 mmHg 86%
    06:00 +13°C° 0 mm 1 mps 743 mmHg 83%
    07:00 +14°C° 0 mm 1 mps 743 mmHg 80%
    08:00 +18°C° 0 mm 1 mps 743 mmHg 72%
    09:00 +20°C° 0 mm 1 mps 743 mmHg 65%
    10:00 +21°C° 0 mm 2 mps 743 mmHg 58%
    11:00 +23°C° 0 mm 2 mps 743 mmHg 54%
    12:00 +24°C° 0 mm 2 mps 743 mmHg 50%
    13:00 +26°C° 0 mm 2 mps 743 mmHg 46%
    14:00 +26°C° 0 mm 3 mps 743 mmHg 47%
    15:00 +26°C° 0 mm 3 mps 742 mmHg 48%
    16:00 +25°C° 0 mm 3 mps 742 mmHg 50%
    17:00 +23°C° 0 mm 2 mps 742 mmHg 56%
    18:00 +20°C° 0 mm 2 mps 742 mmHg 63%
    19:00 +18°C° 0 mm 1 mps 741 mmHg 69%
    20:00 +16°C° 0 mm 1 mps 741 mmHg 70%
    21:00 +16°C° 0 mm 1 mps 742 mmHg 71%
    22:00 +15°C° 0 mm 1 mps 742 mmHg 71%
    23:00 +14°C° 0 mm 1 mps 742 mmHg 71%

    Tomorrow, 26 April, Friday

    Time Temperature Precipitation Wind Pressure Humidity
    00:00 +14°C° 0 mm 1 mps 741 mmHg 70%
    01:00 +13°C° 0 mm 1 mps 741 mmHg 70%
    02:00 +13°C° 0 mm 1 mps 741 mmHg 70%
    03:00 +13°C° 0 mm 1 mps 741 mmHg 70%
    04:00 +12°C° 0 mm 1 mps 741 mmHg 70%
    05:00 +13°C° 0 mm 1 mps 741 mmHg 71%
    06:00 +14°C° 0 mm 1 mps 741 mmHg 71%
    07:00 +15°C° 0 mm 1 mps 741 mmHg 71%
    08:00 +15°C° 0.3 mm 2 mps 741 mmHg 74%
    09:00 +16°C° 0.3 mm 2 mps 741 mmHg 77%
    10:00 +17°C° 0.3 mm 2 mps 741 mmHg 80%
    11:00 +17°C° 0.7 mm 2 mps 741 mmHg 78%
    12:00 +18°C° 0.7 mm 3 mps 741 mmHg 76%
    13:00 +18°C° 0.7 mm 3 mps 741 mmHg 74%
    14:00 +18°C° 0.8 mm 3 mps 741 mmHg 73%
    15:00 +18°C° 0.8 mm 4 mps 740 mmHg 71%
    16:00 +17°C° 0.8 mm 4 mps 740 mmHg 69%
    17:00 +16°C° 0.2 mm 3 mps 740 mmHg 68%
    18:00 +14°C° 0.2 mm 3 mps 740 mmHg 68%
    19:00 +14°C° 0.2 mm 2 mps 740 mmHg 68%
    20:00 +12°C° 0 mm 2 mps 740 mmHg 69%
    21:00 +11°C° 0 mm 1 mps 741 mmHg 70%
    22:00 +10°C° 0 mm 1 mps 741 mmHg 71%
    23:00 +10°C° 0 mm 1 mps 741 mmHg 72%

    Day after tomorrow, 27 April, Saturday

    Time Temperature Precipitation Wind Pressure Humidity
    00:00 +9°C° 0 mm 2 mps 740 mmHg 74%
    01:00 +9°C° 0 mm 2 mps 740 mmHg 75%
    02:00 +8°C° 0 mm 2 mps 740 mmHg 78%
    03:00 +8°C° 0 mm 2 mps 740 mmHg 81%
    04:00 +8°C° 0 mm 2 mps 740 mmHg 85%
    05:00 +9°C° 0 mm 2 mps 740 mmHg 84%
    06:00 +10°C° 0 mm 2 mps 741 mmHg 83%
    07:00 +12°C° 0 mm 2 mps 741 mmHg 82%
    08:00 +14°C° 0 mm 2 mps 741 mmHg 76%
    09:00 +15°C° 0 mm 2 mps 742 mmHg 70%
    10:00 +17°C° 0 mm 2 mps 742 mmHg 64%
    11:00 +18°C° 0 mm 3 mps 742 mmHg 60%
    12:00 +19°C° 0 mm 3 mps 742 mmHg 56%
    13:00 +20°C° 0 mm 3 mps 742 mmHg 52%
    14:00 +19°C° 0 mm 3 mps 742 mmHg 52%
    15:00 +19°C° 0 mm 4 mps 741 mmHg 53%
    16:00 +19°C° 0 mm 4 mps 741 mmHg 54%
    17:00 +17°C° 0 mm 3 mps 741 mmHg 61%
    18:00 +14°C° 0 mm 3 mps 740 mmHg 69%
    19:00 +13°C° 0 mm 2 mps 740 mmHg 77%
    20:00 +12°C° 0 mm 1 mps 740 mmHg 78%
    21:00 +11°C° 0 mm 1 mps 740 mmHg 79%
    22:00 +9°C° 0 mm 0 mps 740 mmHg 79%
    23:00 +10°C° 0 mm 1 mps 739 mmHg 80%

    28 April, Sunday

    Time Temperature Precipitation Wind Pressure Humidity
    00:00 +9°C° 0 mm 1 mps 739 mmHg 81%
    01:00 +9°C° 0 mm 1 mps 738 mmHg 82%
    02:00 +9°C° 0 mm 1 mps 738 mmHg 82%
    03:00 +8°C° 0 mm 1 mps 738 mmHg 82%
    04:00 +8°C° 0 mm 1 mps 737 mmHg 83%
    05:00 +9°C° 0 mm 1 mps 737 mmHg 81%
    06:00 +10°C° 0 mm 1 mps 737 mmHg 79%
    07:00 +11°C° 0 mm 1 mps 737 mmHg 77%
    08:00 +13°C° 0.2 mm 1 mps 737 mmHg 73%
    09:00 +14°C° 0.2 mm 2 mps 737 mmHg 69%
    10:00 +16°C° 0.2 mm 2 mps 738 mmHg 65%
    11:00 +15°C° 1.8 mm 2 mps 737 mmHg 68%
    12:00 +14°C° 1.8 mm 3 mps 737 mmHg 72%
    13:00 +14°C° 1.8 mm 3 mps 737 mmHg 75%
    14:00 +13°C° 1.6 mm 3 mps 737 mmHg 77%
    15:00 +14°C° 1.6 mm 2 mps 737 mmHg 80%
    16:00 +13°C° 1.6 mm 2 mps 737 mmHg 82%
    17:00 +13°C° 1 mm 2 mps 737 mmHg 85%
    18:00 +12°C° 1 mm 2 mps 738 mmHg 88%
    19:00 +10°C° 1 mm 2 mps 738 mmHg 91%
    20:00 +10°C° 0 mm 2 mps 738 mmHg 91%
    21:00 +9°C° 0 mm 2 mps 738 mmHg 91%
    22:00 +8°C° 0 mm 2 mps 739 mmHg 92%
    23:00 +8°C° 0 mm 2 mps 739 mmHg 92%

    29 April, Monday

    Time Temperature Precipitation Wind Pressure Humidity
    00:00 +8°C° 0 mm 2 mps 739 mmHg 93%
    01:00 +8°C° 0 mm 2 mps 739 mmHg 93%
    02:00 +8°C° 0 mm 2 mps 739 mmHg 93%
    03:00 +8°C° 0 mm 2 mps 739 mmHg 93%
    04:00 +8°C° 0 mm 2 mps 739 mmHg 93%
    05:00 +9°C° 0 mm 2 mps 739 mmHg 92%
    06:00 +9°C° 0 mm 2 mps 739 mmHg 90%
    07:00 +10°C° 0 mm 2 mps 739 mmHg 88%
    08:00 +13°C° 0 mm 2 mps 740 mmHg 80%
    09:00 +14°C° 0 mm 3 mps 740 mmHg 72%
    10:00 +17°C° 0 mm 4 mps 740 mmHg 64%
    11:00 +17°C° 0.3 mm 3 mps 740 mmHg 62%
    12:00 +18°C° 0.3 mm 3 mps 740 mmHg 60%
    13:00 +18°C° 0.3 mm 3 mps 739 mmHg 58%
    14:00 +18°C° 0.5 mm 2 mps 739 mmHg 59%
    15:00 +18°C° 0.5 mm 2 mps 739 mmHg 61%
    16:00 +18°C° 0.5 mm 2 mps 738 mmHg 62%
    17:00 +17°C° 0.3 mm 2 mps 738 mmHg 69%
    18:00 +15°C° 0.3 mm 2 mps 738 mmHg 77%
    19:00 +13°C° 0.3 mm 2 mps 738 mmHg 85%
    20:00 +12°C° 0 mm 2 mps 738 mmHg 84%
    21:00 +11°C° 0 mm 1 mps 738 mmHg 84%
    22:00 +10°C° 0 mm 1 mps 738 mmHg 83%
    23:00 +10°C° 0 mm 1 mps 739 mmHg 84%

    30 April, Tuesday

    Time Temperature Precipitation Wind Pressure Humidity
    00:00 +10°C° 0 mm 1 mps 739 mmHg 84%
    01:00 +10°C° 0 mm 1 mps 739 mmHg 85%
    02:00 +10°C° 0 mm 1 mps 738 mmHg 86%
    03:00 +8°C° 0 mm 0 mps 738 mmHg 88%
    04:00 +8°C° 0 mm 0 mps 738 mmHg 89%
    05:00 +9°C° 0 mm 0 mps 739 mmHg 88%
    06:00 +10°C° 0 mm 0 mps 739 mmHg 86%
    07:00 +11°C° 0 mm 0 mps 739 mmHg 84%
    08:00 +14°C° 0 mm 1 mps 739 mmHg 76%
    09:00 +16°C° 0 mm 1 mps 739 mmHg 68%
    10:00 +18°C° 0 mm 2 mps 740 mmHg 60%
    11:00 +19°C° 0.1 mm 2 mps 740 mmHg 58%
    12:00 +20°C° 0.1 mm 2 mps 740 mmHg 56%
    13:00 +20°C° 0.1 mm 2 mps 739 mmHg 53%
    14:00 +20°C° 0.7 mm 2 mps 739 mmHg 57%
    15:00 +20°C° 0.7 mm 2 mps 739 mmHg 61%
    16:00 +19°C° 0.7 mm 3 mps 738 mmHg 64%
    17:00 +18°C° 0.6 mm 2 mps 738 mmHg 70%
    18:00 +16°C° 0.6 mm 2 mps 739 mmHg 76%
    19:00 +15°C° 0.6 mm 2 mps 739 mmHg 82%
    20:00 +13°C° 0 mm 1 mps 739 mmHg 84%
    21:00 +12°C° 0 mm 1 mps 739 mmHg 86%
    22:00 +11°C° 0 mm 1 mps 739 mmHg 88%
    23:00 +10°C° 0 mm 0 mps 739 mmHg 88%
    Show more